Temp
20 20 20 21 21 21 21 21 21 21 21 21 21 20 20 20 20 20 21 20 20 20
21 20 21 21 21 21 21 21 21 21 21 21 21 21 21 21 21 21 21 22 21 21
23 22 22 22 21 21 21 21 21 21 21 22 22 21 21 21 21 21 21 22 21 21
23 23 22 22 22 21 21 22 22 22 22 22 22 22 21 21 21 20 20 21 21 22
22 22 22 22 23 23 22 22 22 22 22 21 21 21 21 21 21 20 20 21 21 22
22 21 22 23 23 23 23 23 22 21 21 21 21 21 21 21 22 22 22 21 21 21
23 22 22 24 24 24 24 23 23 22 21 21 22 21 21 21 22 22 22 21 22 22
24 24 24 24 24 25 24 24 23 23 23 22 22 22 22 22 22 22 22 22 22 22
25 24 24 24 24 24 25 24 23 23 23 23 22 22 22 22 22 22 22 22 22 22
25 25 25 25 24 24 25 24 24 24 24 24 23 23 22 22 22 23 23 23 23 23
25 25 25 25 25 24 24 24 24 23 24 24 24 24 23 22 22 22 23 23 24 24
26 26 25 25 25 25 24 23 23 23 23 24 25 24 24 23 22 21 22 22 22 23
27 27 26 26 25 25 25 24 23 23 23 24 24 23 22 21 21 21 21 21 21 21
28 27 27 26 26 25 24 24 23 23 23 23 23 22 21 21 20 21 21 20 21 20
Height
1533 1538 1543 1548 1552 1555 1558 1561 1565 1568 1570 1573 1576 1577 1579 1581 1583 1585 1586 1588 1590 1592
1527 1531 1535 1540 1546 1550 1554 1557 1560 1564 1565 1569 1572 1574 1575 1576 1578 1581 1583 1585 1587 1589
1518 1523 1528 1535 1540 1545 1549 1553 1556 1558 1561 1563 1566 1569 1572 1572 1574 1577 1579 1582 1584 1587
1512 1518 1523 1528 1535 1540 1544 1547 1551 1553 1555 1557 1561 1564 1567 1569 1571 1574 1577 1579 1581 1583
1507 1512 1518 1522 1527 1533 1537 1541 1545 1547 1550 1553 1557 1560 1564 1566 1568 1569 1571 1573 1575 1577
1501 1505 1509 1515 1520 1525 1529 1533 1538 1542 1545 1549 1551 1554 1557 1559 1561 1562 1564 1567 1569 1571
1493 1498 1502 1507 1512 1517 1521 1526 1531 1537 1539 1541 1544 1547 1549 1552 1555 1557 1559 1559 1560 1562
1486 1492 1496 1500 1504 1509 1514 1518 1524 1528 1531 1534 1536 1537 1541 1544 1546 1548 1551 1552 1552 1553
1478 1483 1487 1492 1496 1501 1505 1510 1514 1518 1521 1524 1526 1528 1531 1535 1537 1540 1541 1543 1545 1545
1470 1475 1479 1485 1489 1492 1496 1501 1504 1508 1511 1513 1516 1520 1523 1526 1528 1530 1531 1532 1535 1537
1463 1467 1473 1477 1480 1484 1489 1492 1495 1498 1501 1503 1505 1509 1514 1518 1521 1521 1522 1523 1525 1526
1455 1461 1465 1468 1473 1478 1482 1485 1487 1490 1492 1493 1494 1499 1503 1510 1513 1513 1511 1513 1515 1516
1452 1455 1457 1461 1466 1470 1474 1477 1481 1482 1483 1485 1486 1490 1495 1501 1504 1504 1502 1508 1505 1505
1447 1449 1451 1455 1459 1462 1466 1470 1472 1474 1476 1477 1478 1482 1486 1491 1494 1492 1496 1496 1494 1494
Wind_Speed
40 35 33 31 29 29 28 26 21 21 18 17 17 18 19 16 13 13 16 19 18 17
43 40 37 34 32 28 27 25 22 19 20 17 15 17 21 21 18 17 15 17 20 19
43 44 42 36 35 31 27 29 24 23 23 22 20 20 20 24 24 22 19 18 17 20
43 44 44 41 35 37 32 28 31 26 24 28 26 24 22 25 26 26 23 22 21 19
42 43 44 44 39 37 36 35 31 34 33 25 28 27 22 21 26 28 28 28 26 24
41 44 43 44 43 41 39 38 38 33 32 33 28 29 28 24 25 27 31 30 29 28
41 42 43 42 41 42 43 42 41 40 38 35 36 34 32 31 29 26 28 34 35 34
43 40 40 42 43 41 43 45 43 43 43 43 43 42 41 40 38 36 33 32 37 39
40 40 41 42 42 44 44 44 45 47 47 47 48 48 47 44 43 41 40 39 38 39
41 41 40 38 41 44 44 44 45 46 47 49 50 49 49 47 46 44 44 43 41 41
47 45 41 40 41 42 43 45 45 46 46 46 47 47 48 48 47 48 47 47 45 45
49 47 46 46 45 44 43 44 46 47 47 48 49 47 45 44 46 50 53 53 52 51
44 47 48 48 47 46 46 45 44 45 47 49 50 50 48 46 46 49 53 54 57 58
42 43 44 44 45 47 48 47 46 46 46 47 47 46 46 45 45 50 51 53 56 56
Wind_Direction
218 217 219 217 215 219 226 232 232 232 231 229 219 220 224 220 221 212 206 202 199 198
216 220 222 218 216 216 223 229 235 231 233 233 225 221 226 230 224 223 217 211 211 207
219 221 226 224 216 217 220 220 227 237 236 238 237 230 229 233 231 230 230 221 218 217
223 221 223 227 222 219 220 219 219 224 232 236 235 235 237 236 235 235 237 240 237 232
230 227 224 225 229 221 224 222 222 225 234 235 235 236 243 247 237 235 237 240 244 242
230 231 230 228 229 229 226 226 224 225 231 236 238 239 241 246 245 241 241 241 244 248
232 232 234 234 231 230 232 231 229 227 231 237 239 243 244 246 247 247 245 245 248 248
235 235 235 235 237 235 234 236 236 235 235 237 240 244 246 249 250 251 250 248 249 253
235 234 235 237 236 238 239 238 240 241 241 242 244 246 250 252 252 254 253 252 252 254
233 235 235 237 239 239 240 242 243 243 245 247 249 250 252 254 256 255 256 256 256 255
230 234 236 239 240 242 242 244 246 248 249 251 253 253 253 252 255 258 258 259 260 261
233 235 238 240 241 243 244 245 247 251 254 255 256 256 256 252 251 253 257 259 259 261
235 238 240 243 243 245 247 248 251 252 256 259 261 261 260 257 253 255 256 255 258 260
235 239 243 244 244 243 244 247 250 254 258 260 263 263 262 262 257 258 257 257 259 259